RH
100 100 100 100 100 100 98 98 94 91 78 32 25 24 25 30 54 87 11 45 79 77 97 96 93 99 99 97 72 41 36 31 32 36 39 38 36 38 44 47 53 55 53 64 60 57 41 34 30 32 44 61 52 42
68 100 100 100 97 97 96 94 99 100 74 38 30 25 26 30 51 87 56 23 66 81 84 100 97 83 64 59 60 38 33 30 28 28 33 39 46 56 67 68 60 63 59 77 73 74 80 80 76 61 51 44 37 34
10 98 100 100 100 100 100 100 100 99 77 44 31 27 28 29 41 76 98 19 38 66 72 83 99 90 75 74 74 48 39 35 33 35 30 29 29 36 34 32 44 55 66 73 78 72 71 63 51 44 38 36 36 38
7 73 100 100 100 99 98 100 100 97 66 41 33 30 30 30 35 65 92 92 20 34 51 66 82 97 95 91 66 65 60 48 44 46 44 47 51 45 45 44 40 31 26 38 54 63 72 74 65 62 53 54 53 46
60 100 100 100 99 96 91 100 100 98 80 47 40 39 34 34 35 40 76 94 89 35 28 43 60 66 72 79 88 83 75 70 62 57 55 54 52 53 46 35 23 22 20 25 37 57 63 61 55 48 43 40 39 40
89 99 97 99 98 99 96 100 100 99 99 91 79 52 42 63 37 41 45 78 97 98 43 16 31 38 49 49 46 46 55 64 64 63 61 58 52 37 25 18 16 17 23 39 58 72 69 62 50 43 42 42 43 43
100 100 100 98 100 100 100 100 100 100 99 100 98 64 46 58 42 44 44 50 81 96 98 76 30 18 25 31 34 38 40 41 39 37 33 31 27 23 24 29 68 77 66 72 67 57 52 46 43 42 41 39 38 39
98 100 100 100 100 100 100 100 100 100 100 99 100 80 73 76 49 48 49 48 50 72 91 96 95 74 49 31 26 27 26 23 20 21 23 30 55 65 66 72 66 63 65 64 61 54 46 39 37 36 36 39 45 50
89 100 100 99 100 100 100 100 100 100 100 100 100 98 97 89 63 57 55 53 48 49 54 64 82 94 97 92 88 79 73 72 70 69 70 68 63 60 58 55 53 53 49 46 41 35 35 38 44 48 50 56 75 84
85 100 100 100 100 100 100 100 100 100 100 99 99 98 96 91 86 80 65 59 53 48 46 47 50 54 64 66 69 77 84 91 89 85 80 76 75 79 84 81 74 67 67 70 70 68 66 62 61 69 80 80 80 79
100 100 100 100 99 100 100 100 100 100 100 99 98 100 100 99 98 96 81 67 60 52 46 43 44 48 48 48 49 51 48 48 48 51 61 62 70 78 84 83 78 76 71 66 58 54 55 59 66 81 85 82 74 62
100 100 100 100 100 100 100 100 100 100 99 100 100 100 100 99 98 95 79 68 63 56 50 46 45 44 43 43 43 42 46 50 50 44 42 42 48 51 53 56 56 54 52 52 54 58 72 87 87 81 66 55 47 42
100 100 100 100 100 100 100 100 100 98 100 100 100 100 100 99 93 77 69 70 80 85 81 64 68 69 67 54 49 48 49 47 48 50 48 50 52 54 54 53 53 56 61 71 93 97 93 78 65 54 45 41 39 38
100 100 100 100 100 100 100 100 100 100 99 100 100 100 100 90 75 68 77 97 100 99 99 97 86 84 90 84 78 72 71 68 62 61 67 69 67 68 75 83 92 98 100 99 97 79 65 58 50 47 44 43 42 40
100 100 100 100 100 100 100 100 100 100 100 100 100 99 90 77 68 77 90 96 100 100 100 100 99 98 98 88 84 80 81 77 78 89 99 99 100 99 96 94 98 96 89 79 71 65 58 55 52 50 47 43 40 42
100 100 100 100 100 100 100 100 100 100 100 100 99 86 81 78 77 82 92 100 100 100 100 99 100 99 99 97 93 92 82 76 80 85 88 87 84 84 86 85 80 76 72 68 63 57 52 49 49 48 46 44 44 42
100 100 100 100 100 100 100 100 100 100 100 96 86 88 86 82 83 91 100 100 100 100 100 100 100 100 94 94 92 92 85 85 83 82 80 77 76 74 74 72 70 65 60 56 51 49 49 48 48 47 46 45 45 42
100 100 100 100 100 100 100 100 100 100 100 87 79 90 90 94 96 94 97 100 100 99 99 100 100 100 96 95 90 92 91 87 83 83 85 86 80 75 74 73 72 71 70 66 64 63 62 58 53 51 50 49 45 41
64 100 100 100 100 100 100 100 100 100 99 96 86 87 86 86 95 100 100 100 100 100 100 100 98 95 91 91 86 85 84 84 85 87 87 89 91 89 84 81 77 74 74 71 70 68 64 61 57 55 52 47 41 34
12 63 100 100 100 100 100 100 100 99 99 98 97 94 93 97 100 100 100 100 100 100 100 98 94 94 96 99 98 94 91 90 86 81 83 93 97 94 90 88 87 85 80 79 74 71 68 64 60 53 46 37 30 28
11 13 62 100 100 100 100 100 100 100 97 96 99 100 100 100 100 100 100 100 100 100 100 97 97 93 88 88 88 92 95 95 100 100 100 96 87 84 86 89 93 93 90 81 75 72 68 60 51 41 34 30 29 28
11 13 16 95 100 100 100 100 100 100 98 96 96 97 99 100 100 100 100 100 100 100 100 97 96 96 94 92 93 97 100 100 100 100 98 94 97 99 100 100 94 86 81 76 74 68 58 47 41 35 31 30 26 21
13 14 18 56 100 100 100 100 100 100 100 100 100 100 100 100 100 100 100 100 100 100 100 96 91 88 89 92 96 96 94 92 90 91 92 93 93 96 96 91 85 83 82 80 70 58 49 42 35 32 28 21 16 23
26 18 29 81 100 100 100 99 100 100 100 100 100 100 100 100 100 100 100 100 100 100 100 100 100 99 98 96 93 90 88 87 87 86 82 81 82 83 83 86 86 83 75 66 59 50 41 35 32 26 16 14 42 71
29 29 38 88 100 100 100 100 100 100 100 100 100 100 100 100 100 100 100 100 100 100 100 100 100 99 95 86 83 84 84 82 81 81 81 81 84 86 85 77 72 67 62 54 45 39 35 29 20 13 16 54 78 76
27 54 50 93 100 100 100 100 100 100 100 100 100 100 100 100 100 100 100 100 100 99 98 98 95 91 91 88 84 84 87 89 89 87 88 88 88 84 77 72 65 55 48 42 36 28 18 12 13 32 55 77 92 94
32 50 93 100 100 100 100 100 100 100 100 100 100 100 100 100 100 100 100 100 99 97 94 89 86 87 87 85 83 83 84 86 88 90 89 87 82 75 66 57 49 42 36 28 16 11 21 46 68 85 91 87 81 76
45 40 92 100 100 100 100 100 100 100 100 100 100 100 100 100 100 100 100 100 95 88 88 89 91 92 91 91 92 92 92 91 88 84 77 69 62 54 46 39 35 24 12 12 40 81 92 91 85 79 77 80 83 79
54 44 48 82 99 100 100 100 100 100 100 100 100 100 99 100 100 99 99 100 100 99 97 96 96 95 92 89 84 78 73 68 63 57 52 45 38 31 25 20 17 23 42 88 100 100 96 93 94 88 85 86 87 88
43 37 39 40 47 60 70 87 92 91 88 82 83 87 90 91 89 85 82 78 76 71 66 63 60 56 52 47 43 39 37 37 35 34 27 19 15 24 44 70 86 93 98 100 88 83 91 91 88 90 91 89 83 43
48 51 40 30 31 32 35 42 45 49 50 50 48 49 50 52 52 50 49 48 49 50 48 46 44 43 42 45 44 37 27 19 14 12 12 20 56 89 96 90 81 82 91 94 90 89 90 92 94 94 86 47 16 12
44 29 30 36 39 32 27 25 24 25 29 33 41 42 43 42 41 40 39 35 30 26 24 22 21 19 18 15 14 12 10 10 16 51 79 96 100 100 97 93 93 94 94 92 92 92 94 97 84 42 15 12 19 38
100 100 94 82 61 46 37 32 30 29 28 26 25 25 28 28 25 25 24 19 17 15 14 14 14 14 15 16 24 44 72 90 97 97 96 95 95 98 98 96 96 95 95 96 97 93 64 30 14 12 18 36 51 57
Wind_Speed
61 53 51 48 45 46 51 51 47 44 39 36 31 28 26 23 19 20 26 31 28 24 23 25 24 25 25 22 18 17 17 18 17 17 17 18 15 15 15 17 20 20 21 24 23 24 26 23 26 28 26 25 25 26
59 56 55 52 47 46 46 47 46 46 43 38 33 30 28 26 21 22 22 33 32 29 26 28 29 29 25 21 21 17 17 14 14 14 13 12 13 13 14 14 16 17 17 17 19 19 21 22 23 24 24 26 27 28
59 63 57 51 45 44 44 43 46 48 42 38 35 31 30 29 24 23 23 30 36 34 31 28 29 32 30 28 27 22 20 19 16 15 17 15 13 14 13 13 15 16 17 19 21 21 22 24 25 26 28 29 30 32
58 66 61 53 47 44 43 45 46 43 41 38 36 32 31 31 27 26 25 25 33 38 37 33 31 31 32 33 30 27 26 25 23 20 19 19 18 17 16 16 17 18 19 20 22 23 25 25 27 29 31 32 34 37
60 63 61 52 47 45 43 47 46 44 40 37 35 33 33 32 31 28 28 27 28 35 40 39 37 35 33 32 31 33 32 31 30 30 29 28 27 26 24 24 24 25 26 25 24 27 28 30 30 32 33 34 37 40
62 61 56 49 47 44 42 46 48 45 38 37 35 35 35 34 34 31 30 29 27 29 32 40 41 39 38 37 34 32 31 32 33 34 33 32 31 31 31 29 29 31 31 27 25 26 29 30 31 33 36 39 41 44
59 58 55 47 47 40 42 45 48 50 44 39 39 38 37 36 37 34 31 30 31 29 30 32 36 42 41 39 38 38 37 37 37 36 36 36 35 36 35 32 26 30 28 26 25 26 30 32 35 37 40 42 45 48
54 57 53 47 41 39 38 43 45 43 45 44 42 39 39 37 37 36 34 32 33 34 32 30 30 32 33 36 38 39 38 39 39 39 38 37 35 32 31 26 27 32 29 29 30 32 33 35 37 39 42 46 49 52
54 52 51 46 40 38 37 38 43 45 46 47 47 46 41 39 39 38 36 35 35 34 33 32 30 29 31 32 32 33 33 34 34 35 35 34 32 31 29 30 33 32 30 31 32 34 36 38 40 43 46 50 54 57
56 55 54 50 46 48 45 41 39 42 45 48 47 45 41 39 39 41 38 38 38 36 34 31 30 30 31 31 32 32 33 36 36 35 36 37 32 32 35 36 36 35 34 35 36 36 37 39 42 46 51 53 50 46
58 58 56 56 53 48 49 45 41 45 43 40 41 43 44 43 43 43 42 41 39 38 36 33 31 31 31 31 32 34 35 36 36 34 37 35 32 34 37 36 33 33 33 35 35 36 39 42 47 49 45 43 44 46
54 57 57 64 58 53 53 46 49 48 45 44 43 41 42 43 43 43 43 41 38 38 36 32 33 34 34 34 34 34 35 35 37 33 35 32 30 32 34 33 31 31 33 35 37 39 42 41 38 39 41 43 44 44
53 58 58 64 66 59 58 45 47 46 51 51 47 46 44 44 45 43 40 36 28 29 32 31 33 32 31 33 35 35 37 37 35 34 31 28 29 30 31 31 31 32 35 36 37 34 33 35 38 40 41 42 44 46
49 52 55 60 66 63 60 57 55 51 50 48 48 48 46 46 44 40 35 29 23 23 30 37 37 36 32 29 30 32 34 34 36 33 26 26 28 29 29 29 30 31 31 30 31 33 35 38 40 42 44 46 48 49
47 48 50 55 60 65 63 62 61 57 55 53 53 50 46 44 40 39 36 34 31 28 25 26 29 32 37 40 37 32 30 32 28 22 23 24 23 23 23 24 25 27 29 32 34 36 38 40 43 45 47 48 50 52
53 51 49 51 56 62 66 64 65 61 58 58 57 52 46 43 44 42 39 34 33 32 30 28 28 27 27 29 29 29 28 26 25 24 23 22 22 22 23 25 27 30 32 35 37 39 42 44 45 46 49 52 54 57
57 56 54 50 53 57 61 64 64 66 65 62 56 52 46 45 44 43 40 36 36 35 34 33 32 30 28 28 26 25 26 26 27 27 27 26 25 25 27 30 32 35 37 39 40 42 45 47 48 50 53 56 59 61
61 57 56 54 52 52 55 59 62 64 70 65 60 58 54 50 48 48 46 42 38 37 37 38 37 35 32 28 26 26 26 29 31 31 31 31 31 32 34 36 38 40 42 43 46 48 49 51 53 55 57 60 63 66
61 60 57 57 54 53 50 52 57 61 67 67 66 64 60 56 54 53 51 48 45 43 42 42 40 38 36 34 32 31 31 31 32 34 35 37 38 39 41 42 44 46 48 49 51 52 54 56 57 58 60 62 65 67
45 59 58 56 57 56 55 54 52 55 60 66 69 68 66 64 60 57 55 54 51 49 48 47 44 41 40 39 38 37 38 38 38 38 40 41 43 46 48 50 51 51 53 54 55 55 56 57 59 60 62 64 68 72
35 43 51 55 51 52 52 52 52 54 54 57 60 63 64 63 62 58 57 57 55 53 50 49 46 45 43 43 43 44 44 42 41 41 42 46 49 52 53 53 54 55 55 55 55 55 57 57 58 61 65 69 72 74
26 36 41 46 51 50 48 48 47 50 51 52 52 55 57 58 58 57 54 54 54 51 49 50 50 48 46 46 44 43 41 41 43 46 49 52 53 54 54 53 52 52 53 53 53 53 55 58 62 66 69 71 71 68
18 30 35 40 43 46 44 43 40 41 47 50 49 49 49 51 53 53 54 53 51 48 48 51 52 51 48 47 46 47 48 49 51 52 52 52 52 51 50 50 49 50 50 50 52 56 59 63 67 69 69 67 61 54
14 27 32 34 39 36 38 42 40 37 40 45 48 48 48 50 50 49 49 48 47 44 43 45 46 48 49 49 49 49 50 51 51 50 50 50 50 49 47 46 47 47 49 53 57 61 65 69 71 67 60 54 49 46
18 27 31 35 34 31 31 33 38 38 39 40 43 47 47 48 49 50 50 48 47 48 48 48 48 48 48 49 50 50 50 50 50 49 49 48 47 45 45 46 47 51 55 59 63 68 70 68 61 54 49 43 42 44
22 30 31 33 35 32 30 29 30 32 36 41 43 39 40 42 44 45 48 49 48 49 50 50 50 49 50 50 49 49 48 47 46 45 44 43 43 44 47 49 53 57 61 65 66 63 57 53 48 43 39 40 44 47
22 32 33 28 29 38 34 31 33 33 31 30 37 47 48 44 44 44 45 45 45 47 49 51 50 49 47 45 43 42 41 41 41 41 42 44 46 49 52 55 59 62 64 59 53 48 44 40 37 37 41 43 46 50
17 29 36 35 30 30 35 37 32 32 32 30 28 29 33 41 48 50 50 48 48 46 44 42 41 40 39 38 38 38 39 40 41 44 46 48 51 56 59 60 59 53 48 43 38 35 33 33 35 38 42 46 49 51
11 22 31 34 35 35 33 32 35 37 35 33 32 32 32 34 35 37 38 36 35 36 37 37 38 38 39 40 42 43 44 46 48 51 54 55 55 53 49 45 42 39 35 32 32 33 34 37 40 44 47 49 52 54
9 13 21 29 31 32 34 35 36 36 37 37 35 34 34 35 34 34 35 37 37 38 38 39 40 41 41 42 42 43 45 46 47 47 46 44 40 35 32 32 33 33 34 35 37 39 40 42 45 47 49 50 51 56
5 7 11 19 23 26 29 30 32 33 33 33 33 35 36 36 38 39 40 40 41 41 41 42 42 42 42 43 43 43 42 41 38 36 33 29 27 27 29 31 33 34 35 35 37 39 41 43 45 47 49 53 53 45
11 7 2 2 7 11 15 20 24 25 27 29 31 32 32 33 34 35 35 36 37 38 38 38 38 38 37 36 34 31 30 27 23 21 21 23 26 28 31 33 34 35 35 35 37 39 41 43 47 50 51 41 36 34
8 8 7 7 5 5 5 5 6 8 10 11 13 14 15 16 17 16 20 24 25 25 24 23 23 23 22 20 18 17 17 17 19 21 24 27 30 32 33 33 33 33 35 36 39 42 44 47 47 37 31 29 30 32
Wind_Direction
205 199 207 212 217 214 216 215 219 223 226 226 218 217 223 231 217 221 207 204 192 188 197 196 190 179 171 171 167 171 175 170 171 171 168 172 171 178 185 189 201 210 216 212 225 234 246 250 250 252 253 252 253 256
209 201 207 209 215 212 214 214 213 217 218 221 216 211 217 227 217 219 212 205 201 194 197 199 195 190 188 184 181 183 179 176 176 177 177 180 180 182 192 204 213 226 232 237 239 244 248 247 248 250 252 254 258 260
203 203 204 208 208 210 212 216 213 208 213 216 214 208 212 222 218 215 217 209 208 203 201 203 203 200 200 193 186 201 199 196 193 192 194 201 218 227 231 232 235 238 242 245 245 251 251 249 249 252 257 261 264 268
203 203 207 207 209 208 212 213 207 208 210 209 210 208 210 218 220 213 223 212 212 209 208 205 206 208 209 208 214 217 220 220 222 224 227 233 246 253 258 261 269 270 270 265 262 260 257 254 253 256 260 264 268 271
199 202 205 204 206 206 210 208 202 205 207 208 209 210 209 217 222 219 216 226 213 215 213 212 212 212 214 220 224 224 229 234 238 243 247 251 254 259 265 270 273 273 273 272 268 264 261 257 257 259 265 270 274 279
198 199 202 201 203 201 206 209 209 210 208 208 210 214 211 215 222 224 218 221 228 215 216 216 219 220 221 223 226 229 233 239 244 248 252 253 258 263 267 270 272 272 269 268 264 258 258 261 265 267 270 272 277 281
192 194 195 200 198 200 208 210 215 218 218 220 213 215 214 215 221 224 223 218 223 228 219 215 217 221 224 226 230 233 236 240 244 247 250 255 259 262 267 264 257 258 261 261 262 262 262 265 266 269 273 278 283 286
195 194 197 195 198 206 209 210 213 218 216 225 211 213 215 215 221 224 226 224 222 226 227 224 221 222 224 228 232 236 240 243 245 248 251 253 255 258 259 256 256 256 259 262 264 266 268 269 273 278 281 283 286 289
196 193 193 195 199 201 210 215 217 220 224 219 211 214 216 213 219 224 225 229 229 227 228 227 226 228 227 228 232 235 237 239 242 245 247 250 254 259 261 257 256 261 262 265 268 269 270 274 277 279 282 286 289 291
192 193 195 196 194 195 205 214 220 223 224 220 216 217 215 215 219 222 224 229 232 231 230 231 231 230 233 233 233 236 239 242 245 248 252 255 257 258 257 256 259 263 265 267 267 270 274 277 280 283 287 290 294 296
190 188 189 191 197 197 205 211 216 222 227 227 227 225 219 217 219 222 224 227 230 232 233 233 236 241 242 243 243 244 245 247 248 247 250 251 253 254 259 262 264 265 266 267 270 273 275 278 283 288 292 294 296 298
194 193 194 194 197 199 201 208 214 219 223 225 227 227 225 225 227 225 227 228 232 234 234 233 234 238 240 243 246 249 252 252 254 253 253 255 254 253 256 259 260 261 265 270 274 278 281 284 288 290 293 295 297 299
191 193 194 197 198 201 203 202 208 216 221 224 226 226 225 227 230 231 230 230 237 242 238 240 239 238 238 241 243 246 248 251 256 257 260 263 260 259 258 261 266 268 270 274 277 277 281 284 288 292 295 298 301 303
193 195 194 195 197 199 204 205 207 212 216 220 227 228 226 230 232 232 230 222 223 227 233 234 234 235 235 241 246 249 253 255 256 259 261 256 256 259 262 264 266 269 272 272 274 277 283 287 291 293 296 298 301 304
195 197 196 195 196 200 201 204 210 215 219 224 230 228 229 229 231 231 229 229 232 237 240 240 238 239 241 244 248 252 257 257 261 264 258 259 262 265 266 268 270 270 270 272 277 282 285 288 292 296 299 302 304 308
202 200 199 197 196 197 201 203 207 210 220 225 227 225 225 229 231 233 233 233 233 236 237 238 240 241 243 243 243 245 255 263 265 265 266 267 270 272 274 274 275 278 279 280 283 286 289 293 298 301 302 305 308 309
206 206 206 205 202 201 200 203 206 209 213 220 221 220 224 228 232 232 230 237 237 238 243 243 243 244 244 244 247 251 257 261 262 264 268 271 271 273 275 277 278 280 283 288 292 293 295 298 300 301 303 305 307 309
205 206 207 208 209 209 208 207 208 209 212 216 219 222 228 230 232 231 237 243 243 243 248 252 248 245 245 249 254 260 261 262 264 268 273 275 279 282 283 284 287 288 289 290 290 292 295 298 300 301 303 305 307 309
210 207 208 208 209 210 212 214 214 215 213 214 220 225 229 232 233 235 240 244 246 246 248 249 249 249 249 250 255 260 262 265 268 271 274 276 277 279 281 282 283 283 285 287 289 292 294 296 298 300 302 304 306 307
212 212 208 211 212 214 214 215 218 221 221 220 222 226 230 231 234 238 239 241 244 246 248 250 252 253 254 254 256 258 260 264 267 270 273 275 276 277 278 280 282 285 287 289 291 291 292 293 296 299 302 304 306 307
211 211 213 213 209 212 215 217 218 221 225 225 224 226 229 230 233 234 236 240 242 245 246 249 250 252 254 256 257 258 259 263 268 273 274 274 274 275 277 280 282 283 286 287 287 288 290 294 297 300 303 305 306 305
213 209 209 210 213 213 213 212 214 218 222 225 227 228 230 233 234 236 238 239 241 242 243 247 248 250 253 256 260 262 264 264 264 265 267 271 274 277 279 280 282 282 283 283 285 288 291 295 299 302 303 304 304 303
217 208 206 206 209 214 217 214 213 216 217 220 223 224 226 229 232 234 236 239 242 246 248 249 251 251 252 252 254 257 259 261 263 266 269 272 274 276 277 278 278 279 280 282 286 290 294 298 300 301 302 302 299 299
229 205 203 204 208 208 213 216 213 214 217 218 220 223 225 226 228 231 235 238 241 243 247 249 249 251 251 252 254 258 260 262 265 269 272 274 274 275 275 275 277 279 283 287 290 294 297 299 301 302 299 295 297 300
220 204 202 203 203 204 208 212 213 211 214 219 221 223 226 228 231 234 237 238 239 242 244 247 252 256 258 259 260 262 265 268 269 270 271 273 274 274 275 278 281 284 286 289 293 296 299 300 299 295 294 293 298 299
209 202 201 207 203 202 202 207 210 209 210 211 215 219 223 227 232 236 240 243 246 249 252 254 255 256 258 260 263 264 266 267 268 269 269 270 271 273 276 279 281 285 289 294 296 297 295 292 293 295 293 293 299 303
211 202 200 202 206 206 205 206 212 212 208 207 211 213 214 216 221 226 234 243 249 252 255 258 260 262 262 262 263 264 264 264 265 267 269 270 272 274 278 283 288 291 293 293 291 289 290 293 294 293 295 298 300 303
215 205 205 203 202 206 212 212 213 217 220 222 220 217 219 224 228 233 242 248 253 255 255 255 255 257 259 261 263 264 265 266 267 268 270 274 279 283 286 287 289 288 287 285 285 287 288 291 294 298 302 304 304 305
221 211 209 214 217 217 217 218 222 224 224 222 222 225 229 229 230 233 236 241 246 249 251 253 255 257 258 260 262 265 268 270 273 276 277 279 281 283 283 282 282 282 277 276 281 287 291 293 297 302 304 306 307 308
250 227 218 219 221 223 223 224 225 226 228 231 232 232 234 238 242 245 248 251 255 258 261 264 266 267 269 270 270 271 271 272 273 275 277 277 276 274 273 276 279 278 277 280 284 289 293 296 299 302 304 305 306 308
353 343 255 232 226 228 227 228 229 230 231 233 235 238 240 244 247 251 254 257 258 260 262 263 264 264 266 267 269 271 272 273 274 273 269 265 263 266 270 275 280 282 283 284 286 289 294 298 300 302 304 307 309 309
35 41 70 200 236 241 243 243 244 244 243 242 241 244 245 248 250 253 257 260 261 261 263 263 264 265 266 268 268 267 266 263 255 253 258 265 272 276 279 280 283 286 288 291 294 296 298 300 302 305 308 307 307 309
11 22 46 62 79 111 145 171 196 214 228 233 237 242 244 246 248 243 242 248 250 253 255 255 255 255 254 252 248 242 243 250 259 266 272 276 280 282 283 285 288 290 292 293 295 298 301 303 305 305 303 304 307 311